GW6731 Weather Reports


Display with metric or nautical units.
time (UTC)temp
F
wind
direction
speed
MPH
gust
MPH
rain 1hr
in
rain 24hr
in
rain mn
in
humidity
%
barometer
mb
20260503003033 60 184 0.0 1.0 0.00 0.00 0.00 43 1016.5
20260503001532 60 355 1.0 2.0 0.00 0.00 0.00 44 1016.7
20260503000040 60 296 1.0 3.0 0.00 0.00 0.00 42 1016.8
20260502234536 61 271 0.0 1.0 0.00 0.00 0.00 41 1016.7
20260502233034 61 0 0.0 5.0 0.00 0.00 0.00 42 1016.9
20260502231530 64 81 0.0 3.0 0.00 0.00 0.00 38 1017.0
20260502230030 64 175 4.0 7.0 0.00 0.00 0.00 38 1017.2
20260502224533 63 308 1.0 5.0 0.00 0.00 0.00 39 1017.4
20260502223033 62 312 1.0 9.0 0.00 0.00 0.00 41 1017.5
20260502221532 64 283 2.0 8.0 0.00 0.00 0.00 41 1017.7
20260502220035 62 11 1.0 6.0 0.00 0.00 0.00 41 1017.9
20260502214534 62 19 3.0 9.0 0.00 0.00 0.00 44 1018.1
20260502213035 62 323 3.0 11.0 0.00 0.00 0.00 44 1018.3
20260502211538 60 273 3.0 8.0 0.00 0.00 0.00 44 1018.5
20260502210033 60 327 4.0 9.0 0.00 0.00 0.00 45 1018.6
20260502204532 60 271 2.0 5.0 0.00 0.00 0.00 43 1018.8
20260502203033 61 288 3.0 7.0 0.00 0.00 0.00 41 1018.8
20260502201531 59 116 1.0 8.0 0.00 0.00 0.00 44 1018.9
20260502200043 62 286 2.0 13.0 0.00 0.00 0.00 41 1019.1
20260502194534 60 327 3.0 8.0 0.00 0.00 0.00 44 1019.3
20260502193033 59 18 2.0 9.0 0.00 0.00 0.00 45 1019.4
20260502191531 59 15 4.0 11.0 0.00 0.00 0.00 45 1019.6
20260502190035 58 318 6.0 12.0 0.00 0.00 0.00 46 1019.8
20260502184537 57 305 5.0 11.0 0.00 0.00 0.00 48 1019.9
20260502183032 57 291 6.0 11.0 0.00 0.00 0.00 49 1020.0
20260502181534 57 347 5.0 12.0 0.00 0.00 0.00 49 1019.9
20260502163032 57 275 8.0 15.0 0.00 0.00 0.00 50 1019.9
20260502161531 57 317 9.0 14.0 0.00 0.00 0.00 50 1019.9
20260502151540 55 322 6.0 12.0 0.00 0.00 0.00 53 1019.7
20260502123044 51 333 4.0 12.0 0.00 0.00 0.00 51 1018.8
20260502121532 50 336 4.0 11.0 0.00 0.00 0.00 50 1018.7
20260502114534 51 31 12.0 20.0 0.00 0.00 0.00 48 1018.1
20260502113037 51 61 15.0 21.0 0.00 0.00 0.00 47 1017.9
20260502111544 51 47 16.0 26.0 0.00 0.00 0.00 48 1017.5
20260502110032 51 68 12.0 28.0 0.00 0.00 0.00 48 1017.4
20260502104531 51 63 19.0 26.0 0.00 0.00 0.00 48 1017.3
20260502103033 52 54 17.0 24.0 0.00 0.00 0.00 46 1017.2
20260502101534 52 57 17.0 25.0 0.00 0.00 0.00 45 1017.2
20260502091532 51 9 4.0 8.0 0.00 0.00 0.00 43 1016.0
20260502071533 50 0 0.0 5.0 0.00 0.00 0.00 46 1016.2
20260502070037 50 317 3.0 6.0 0.00 0.00 0.00 46 1016.1
20260502064535 49 344 3.0 6.0 0.00 0.00 0.00 46 1016.2
20260502063039 48 321 3.0 7.0 0.00 0.00 0.00 48 1016.1
20260502061530 48 321 3.0 7.0 0.00 0.00 0.00 50 1016.0
20260502060031 47 336 3.0 4.0 0.00 0.00 0.00 51 1016.1
20260502054534 46 321 2.0 3.0 0.00 0.00 0.00 51 1016.1
20260502053030 46 307 2.0 4.0 0.00 0.00 0.00 52 1016.3
20260502051535 45 346 3.0 4.0 0.00 0.00 0.00 52 1016.2
20260502050032 46 22 4.0 5.0 0.00 0.00 0.00 52 1016.1
20260502044529 44 327 0.0 1.0 0.00 0.00 0.00 53 1016.3
20260502043029 46 336 1.0 3.0 0.00 0.00 0.00 48 1016.2
20260502041533 48 0 0.0 3.0 0.00 0.00 0.00 46 1016.1
20260502040034 49 337 2.0 5.0 0.00 0.00 0.00 44 1016.1
20260502034530 50 336 2.0 4.0 0.00 0.00 0.00 41 1015.9
20260502033032 52 195 0.0 2.0 0.00 0.00 0.00 39 1015.6
20260502031530 51 161 0.0 1.0 0.00 0.00 0.00 39 1015.3
20260502030032 52 0 0.0 0.0 0.00 0.00 0.00 36 1015.4
20260502024533 55 0 0.0 1.0 0.00 0.00 0.00 34 1015.2
20260502023034 58 274 0.0 2.0 0.00 0.00 0.00 30 1015.1
20260502021533 60 247 0.0 1.0 0.00 0.00 0.00 27 1015.1
20260502020030 63 245 1.0 3.0 0.00 0.00 0.00 23 1015.0
20260502014532 64 250 1.0 4.0 0.00 0.00 0.00 22 1014.8
20260502013034 65 246 1.0 3.0 0.00 0.00 0.00 21 1014.8
20260502011532 67 253 2.0 7.0 0.00 0.00 0.00 20 1014.8
20260502010032 67 211 3.0 11.0 0.00 0.00 0.00 21 1014.9
20260502004531 68 234 4.0 9.0 0.00 0.00 0.00 25 1015.0